WZZ3606 EVRA-EPWA

Flight info

Callsign WZZ3606
Flight time 1h 0m
Altitude 35000
Route BERIL DCT IRZUK DCT BOKSU/N0453F360 M857 UNPEG/N0387F200 M857 GERVI P851 NEPOX
Aircraft A21N/M-SDE3FGHIRWY/LB1

Departure

Time 2026-05-06 18:00
Airport Riga International Airport (EVRA)

Arrival

Time 2026-05-06 19:00
Airport Warsaw Chopin Airport (EPWA)
Time Latitude Longitude Altitude Speed Heading
2026-05-06 17:47 56.92815 23.97700 32 ft 0 kts 275°
2026-05-06 17:54 56.92816 23.97698 32 ft 0 kts 275°
2026-05-06 17:54 56.92818 23.97655 32 ft 6 kts 274°
2026-05-06 17:54 56.92775 23.97580 32 ft 12 kts 191°
2026-05-06 17:55 56.92667 23.97559 32 ft 18 kts 185°
2026-05-06 17:55 56.92524 23.97536 32 ft 23 kts 185°
2026-05-06 17:55 56.92353 23.97505 32 ft 25 kts 187°
2026-05-06 17:55 56.92184 23.97472 32 ft 23 kts 185°
2026-05-06 17:56 56.92023 23.97444 31 ft 23 kts 184°
2026-05-06 17:56 56.91862 23.97429 30 ft 22 kts 185°
2026-05-06 17:56 56.91709 23.97404 31 ft 21 kts 185°
2026-05-06 17:56 56.91565 23.97379 33 ft 20 kts 185°
2026-05-06 17:57 56.91429 23.97356 33 ft 19 kts 185°
2026-05-06 17:57 56.91301 23.97334 35 ft 18 kts 185°
2026-05-06 17:57 56.91175 23.97313 35 ft 17 kts 185°
2026-05-06 17:57 56.91056 23.97294 37 ft 16 kts 185°
2026-05-06 17:58 56.90953 23.97230 39 ft 15 kts 208°
2026-05-06 17:58 56.90853 23.97169 38 ft 15 kts 187°
2026-05-06 17:58 56.90747 23.97153 40 ft 14 kts 185°
2026-05-06 17:58 56.90661 23.97083 40 ft 14 kts 233°
2026-05-06 17:59 56.90646 23.96935 37 ft 11 kts 281°
2026-05-06 17:59 56.90695 23.96841 35 ft 11 kts
2026-05-06 17:59 56.90801 23.96858 36 ft 36 kts
2026-05-06 17:59 56.91335 23.96952 32 ft 114 kts
2026-05-06 18:00 56.92339 23.97121 79 ft 170 kts
2026-05-06 18:00 56.93590 23.97306 607 ft 186 kts
2026-05-06 18:00 56.94874 23.97304 1468 ft 192 kts
2026-05-06 18:00 56.96207 23.97074 2328 ft 200 kts 354°
2026-05-06 18:01 56.97541 23.95809 2826 ft 236 kts 318°
2026-05-06 18:01 56.98295 23.93026 2950 ft 258 kts 281°
2026-05-06 18:01 56.98026 23.89816 2951 ft 263 kts 241°
2026-05-06 18:01 56.96859 23.87229 2965 ft 261 kts 221°
2026-05-06 18:02 56.95539 23.84914 2954 ft 262 kts 223°
2026-05-06 18:02 56.94291 23.82445 2952 ft 264 kts 227°
2026-05-06 18:02 56.93071 23.79803 2959 ft 280 kts 230°
2026-05-06 18:02 56.91927 23.76830 3081 ft 290 kts 238°
2026-05-06 18:03 56.90947 23.73646 3867 ft 291 kts 241°
2026-05-06 18:03 56.89993 23.70412 4703 ft 288 kts 240°
2026-05-06 18:03 56.88836 23.67518 5510 ft 283 kts 217°
2026-05-06 18:03 56.87091 23.66000 6360 ft 278 kts 192°
2026-05-06 18:04 56.85198 23.65324 7199 ft 277 kts 188°
2026-05-06 18:04 56.83313 23.64725 8021 ft 275 kts 190°
2026-05-06 18:04 56.81467 23.64053 8826 ft 272 kts 192°
2026-05-06 18:04 56.79660 23.63313 9630 ft 270 kts 194°
2026-05-06 18:05 56.77828 23.62506 10451 ft 270 kts 196°
2026-05-06 18:05 56.75998 23.61660 11261 ft 273 kts 197°
2026-05-06 18:05 56.74166 23.60793 12072 ft 276 kts 197°
2026-05-06 18:05 56.72333 23.59917 12861 ft 278 kts 198°
2026-05-06 18:06 56.70471 23.59022 13653 ft 279 kts 198°
2026-05-06 18:06 56.68617 23.58130 14435 ft 280 kts 199°
2026-05-06 18:06 56.66724 23.57214 15232 ft 280 kts 199°
2026-05-06 18:06 56.64845 23.56304 16025 ft 279 kts 199°
2026-05-06 18:07 56.62974 23.55400 16818 ft 278 kts 199°
2026-05-06 18:07 56.61129 23.54509 17597 ft 275 kts 199°
2026-05-06 18:07 56.59306 23.53630 18369 ft 272 kts 199°
2026-05-06 18:07 56.57492 23.52756 19141 ft 269 kts 199°
2026-05-06 18:08 56.55660 23.51869 19664 ft 275 kts 199°
2026-05-06 18:08 56.53757 23.50947 19887 ft 292 kts 199°
2026-05-06 18:08 56.51706 23.49953 19974 ft 311 kts 199°
2026-05-06 18:08 56.49560 23.48920 20247 ft 324 kts 198°
2026-05-06 18:09 56.47306 23.47840 20497 ft 338 kts 198°
2026-05-06 18:09 56.44983 23.46731 20743 ft 351 kts 198°
2026-05-06 18:09 56.42586 23.45586 20972 ft 363 kts 198°
2026-05-06 18:09 56.40052 23.44376 21190 ft 375 kts 198°
2026-05-06 18:10 56.37512 23.43170 21443 ft 385 kts 197°
2026-05-06 18:10 56.34820 23.42082 21894 ft 391 kts 194°
2026-05-06 18:10 56.32136 23.41153 22435 ft 392 kts 194°
2026-05-06 18:10 56.29411 23.40186 22975 ft 394 kts 194°
2026-05-06 18:11 56.26709 23.39227 23465 ft 396 kts 194°
2026-05-06 18:11 56.23984 23.38262 23956 ft 398 kts 194°
2026-05-06 18:11 56.21252 23.37298 24426 ft 399 kts 194°
2026-05-06 18:11 56.18471 23.36321 24850 ft 402 kts 194°
2026-05-06 18:12 56.15702 23.35346 25260 ft 404 kts 194°
2026-05-06 18:12 56.12888 23.34359 25664 ft 406 kts 193°
2026-05-06 18:12 56.10072 23.33373 26078 ft 408 kts 193°
2026-05-06 18:12 56.07293 23.32403 26463 ft 410 kts 193°
2026-05-06 18:13 56.04451 23.31409 26878 ft 411 kts 193°
2026-05-06 18:13 56.01631 23.30430 27398 ft 409 kts 193°
2026-05-06 18:13 55.98803 23.29446 27941 ft 407 kts 193°
2026-05-06 18:13 55.96001 23.28474 28443 ft 405 kts 193°
2026-05-06 18:14 55.93221 23.27510 28911 ft 404 kts 193°
2026-05-06 18:14 55.90446 23.26551 29337 ft 403 kts 193°
2026-05-06 18:14 55.87664 23.25590 29788 ft 402 kts 193°
2026-05-06 18:14 55.84889 23.24632 30233 ft 401 kts 194°
2026-05-06 18:15 55.82118 23.23676 30642 ft 401 kts 194°
2026-05-06 18:15 55.79305 23.22708 31041 ft 400 kts 194°
2026-05-06 18:15 55.76555 23.21761 31406 ft 399 kts 194°
2026-05-06 18:15 55.73822 23.20822 31766 ft 398 kts 194°
2026-05-06 18:16 55.71070 23.19879 32123 ft 397 kts 194°
2026-05-06 18:16 55.68339 23.18943 32468 ft 396 kts 194°
2026-05-06 18:16 55.65604 23.18007 32807 ft 395 kts 194°
2026-05-06 18:16 55.62894 23.17083 33120 ft 395 kts 194°
2026-05-06 18:17 55.60151 23.16146 33402 ft 395 kts 194°
2026-05-06 18:17 55.57424 23.15216 33662 ft 395 kts 194°
2026-05-06 18:17 55.54714 23.14294 33946 ft 394 kts 194°
2026-05-06 18:17 55.51978 23.13365 34212 ft 394 kts 194°
2026-05-06 18:18 55.49304 23.12456 34408 ft 395 kts 194°
2026-05-06 18:18 55.46556 23.11527 34588 ft 396 kts 194°
2026-05-06 18:18 55.43834 23.10606 34770 ft 397 kts 194°
2026-05-06 18:18 55.41102 23.09685 34926 ft 398 kts 194°
2026-05-06 18:19 55.38323 23.08746 35056 ft 399 kts 194°
2026-05-06 18:19 55.35603 23.07829 35197 ft 400 kts 194°
2026-05-06 18:19 55.32804 23.06889 35323 ft 401 kts 194°
2026-05-06 18:19 55.30022 23.05955 35438 ft 403 kts 194°
2026-05-06 18:20 55.27261 23.05071 35561 ft 404 kts 193°
2026-05-06 18:20 55.24404 23.04397 35664 ft 407 kts 190°
2026-05-06 18:20 55.18686 23.03848 35786 ft 413 kts 185°
2026-05-06 18:21 55.12906 23.03994 35776 ft 413 kts 184°
2026-05-06 18:21 55.07137 23.04111 35785 ft 413 kts 184°
2026-05-06 18:22 55.01307 23.04242 35775 ft 414 kts 184°
2026-05-06 18:22 54.95486 23.04379 35775 ft 414 kts 184°
2026-05-06 18:23 54.89718 23.04515 35779 ft 414 kts 184°
2026-05-06 18:23 54.83802 23.04653 35773 ft 414 kts 184°
2026-05-06 18:24 54.78014 23.04789 35766 ft 414 kts 184°
2026-05-06 18:24 54.72236 23.04923 35773 ft 415 kts 184°
2026-05-06 18:25 54.66359 23.05061 35766 ft 415 kts 184°
2026-05-06 18:25 54.60566 23.05195 35770 ft 415 kts 184°
2026-05-06 18:26 54.54838 23.05327 35765 ft 415 kts 184°
2026-05-06 18:26 54.49056 23.05463 35768 ft 415 kts 184°
2026-05-06 18:27 54.43317 23.05594 35774 ft 416 kts 184°
2026-05-06 18:27 54.37538 23.05573 35765 ft 415 kts 187°
2026-05-06 18:28 54.31869 23.04565 35759 ft 411 kts 193°
2026-05-06 18:28 54.26109 23.02357 35754 ft 408 kts 199°
2026-05-06 18:29 54.20809 22.99201 35756 ft 406 kts 204°
2026-05-06 18:29 54.15574 22.95715 35755 ft 405 kts 204°
2026-05-06 18:30 54.10313 22.92232 35760 ft 406 kts 203°
2026-05-06 18:30 54.04933 22.89319 35757 ft 409 kts 198°
2026-05-06 18:31 53.99427 22.87171 35758 ft 411 kts 197°
2026-05-06 18:31 53.93853 22.85024 35755 ft 411 kts 197°
2026-05-06 18:32 53.88290 22.82900 35753 ft 411 kts 197°
2026-05-06 18:32 53.82703 22.80782 35755 ft 411 kts 196°
2026-05-06 18:33 53.77066 22.78655 35761 ft 412 kts 196°
2026-05-06 18:33 53.71355 22.76508 35759 ft 413 kts 196°
2026-05-06 18:34 53.65662 22.74374 35763 ft 412 kts 197°
2026-05-06 18:34 53.60042 22.72271 35763 ft 413 kts 196°
2026-05-06 18:35 53.54417 22.70173 35762 ft 413 kts 196°
2026-05-06 18:35 53.48757 22.68066 35765 ft 413 kts 196°
2026-05-06 18:36 53.43159 22.65986 35764 ft 414 kts 197°
2026-05-06 18:36 53.37575 22.63918 35768 ft 414 kts 197°
2026-05-06 18:37 53.31967 22.61758 35756 ft 412 kts 201°
2026-05-06 18:37 53.29296 22.60030 35654 ft 405 kts 208°
2026-05-06 18:37 53.26832 22.57740 35276 ft 400 kts 215°
2026-05-06 18:38 53.24451 22.55177 34718 ft 399 kts 216°
2026-05-06 18:38 53.22111 22.52624 34108 ft 397 kts 216°
2026-05-06 18:38 53.19796 22.50102 33439 ft 396 kts 216°
2026-05-06 18:38 53.17455 22.47558 32704 ft 397 kts 216°
2026-05-06 18:39 53.15094 22.45002 31904 ft 399 kts 215°
2026-05-06 18:39 53.12716 22.42433 31097 ft 401 kts 215°
2026-05-06 18:39 53.10352 22.39886 30262 ft 403 kts 215°
2026-05-06 18:40 53.05674 22.34855 28518 ft 407 kts 214°
2026-05-06 18:40 53.03264 22.32271 27589 ft 410 kts 214°
2026-05-06 18:40 53.00831 22.29664 26626 ft 413 kts 214°
2026-05-06 18:40 52.98376 22.27039 25707 ft 414 kts 214°
2026-05-06 18:41 52.95972 22.24474 25062 ft 409 kts 214°
2026-05-06 18:41 52.93597 22.21944 24454 ft 404 kts 214°
2026-05-06 18:41 52.91196 22.19389 23779 ft 401 kts 214°
2026-05-06 18:41 52.88849 22.16894 23106 ft 398 kts 214°
2026-05-06 18:42 52.86474 22.14371 22473 ft 394 kts 214°
2026-05-06 18:42 52.84152 22.11910 21873 ft 390 kts 214°
2026-05-06 18:42 52.81851 22.09476 21251 ft 387 kts 214°
2026-05-06 18:42 52.79571 22.07067 20657 ft 383 kts 214°
2026-05-06 18:43 52.77338 22.04708 20039 ft 380 kts 214°
2026-05-06 18:43 52.75111 22.02356 19420 ft 377 kts 214°
2026-05-06 18:43 52.72904 22.00029 18841 ft 373 kts 214°
2026-05-06 18:43 52.70746 21.97756 18260 ft 370 kts 214°
2026-05-06 18:44 52.68567 21.95464 17681 ft 366 kts 214°
2026-05-06 18:44 52.66461 21.93252 17107 ft 364 kts 214°
2026-05-06 18:44 52.64331 21.91014 16506 ft 361 kts 214°
2026-05-06 18:44 52.62171 21.88752 15881 ft 360 kts 214°
2026-05-06 18:45 52.60061 21.86544 15270 ft 358 kts 214°
2026-05-06 18:45 52.57961 21.84348 14677 ft 356 kts 214°
2026-05-06 18:45 52.55888 21.82181 14088 ft 354 kts 214°
2026-05-06 18:45 52.53840 21.80044 13492 ft 353 kts 214°
2026-05-06 18:46 52.51760 21.77878 12910 ft 351 kts 214°
2026-05-06 18:46 52.49710 21.75746 12368 ft 348 kts 214°
2026-05-06 18:46 52.47697 21.73654 11835 ft 345 kts 214°
2026-05-06 18:46 52.45681 21.71562 11291 ft 342 kts 214°
2026-05-06 18:47 52.43686 21.69494 10752 ft 340 kts 214°
2026-05-06 18:47 52.41714 21.67450 10223 ft 336 kts 214°
2026-05-06 18:47 52.39759 21.65426 9845 ft 333 kts 214°
2026-05-06 18:47 52.37794 21.63395 9576 ft 329 kts 214°
2026-05-06 18:48 52.35916 21.61456 9297 ft 313 kts 214°
2026-05-06 18:48 52.34128 21.59613 9011 ft 297 kts 214°
2026-05-06 18:48 52.32416 21.57847 8751 ft 283 kts 214°
2026-05-06 18:48 52.30794 21.56176 8550 ft 273 kts 214°
2026-05-06 18:49 52.29213 21.54549 8346 ft 261 kts 214°
2026-05-06 18:49 52.27709 21.53003 8108 ft 249 kts 214°
2026-05-06 18:49 52.26261 21.51514 7517 ft 253 kts 214°
2026-05-06 18:49 52.24771 21.49978 6948 ft 252 kts 213°
2026-05-06 18:50 52.23315 21.48484 6713 ft 240 kts 213°
2026-05-06 18:50 52.21939 21.47074 6349 ft 235 kts 213°
2026-05-06 18:50 52.20557 21.45658 6028 ft 228 kts 213°
2026-05-06 18:50 52.19247 21.44319 5817 ft 217 kts 213°
2026-05-06 18:51 52.17997 21.43041 5544 ft 210 kts 213°
2026-05-06 18:51 52.16757 21.41773 4977 ft 218 kts 213°
2026-05-06 18:51 52.15458 21.40445 4442 ft 223 kts 213°
2026-05-06 18:51 52.14149 21.39111 4006 ft 223 kts 213°
2026-05-06 18:52 52.12840 21.37775 3572 ft 223 kts 213°
2026-05-06 18:52 52.11521 21.36429 3146 ft 223 kts 213°
2026-05-06 18:52 52.10229 21.35113 2986 ft 223 kts 213°
2026-05-06 18:52 52.08898 21.33758 2994 ft 224 kts 213°
2026-05-06 18:53 52.07588 21.32425 2988 ft 225 kts 213°
2026-05-06 18:53 52.06252 21.31068 2982 ft 225 kts 213°
2026-05-06 18:53 52.04935 21.29730 2977 ft 220 kts 214°
2026-05-06 18:53 52.03843 21.28169 3033 ft 199 kts 230°
2026-05-06 18:54 52.03042 21.26474 2998 ft 182 kts 234°
2026-05-06 18:54 52.02294 21.24820 2985 ft 181 kts 233°
2026-05-06 18:54 52.01524 21.23174 2983 ft 182 kts 232°
2026-05-06 18:54 52.00745 21.21562 2983 ft 182 kts 231°
2026-05-06 18:55 51.99945 21.19939 2984 ft 182 kts 231°
2026-05-06 18:55 51.99141 21.18327 2989 ft 185 kts 231°
2026-05-06 18:55 51.98411 21.16558 2986 ft 192 kts 248°
2026-05-06 18:55 51.98317 21.14432 2981 ft 196 kts 282°
2026-05-06 18:56 51.98997 21.12538 2996 ft 199 kts 310°
2026-05-06 18:56 52.00100 21.11091 2994 ft 201 kts 324°
2026-05-06 18:56 52.01305 21.09982 2985 ft 195 kts 329°
2026-05-06 18:56 52.02487 21.09006 2979 ft 191 kts 330°
2026-05-06 18:57 52.03672 21.08013 2899 ft 191 kts 329°
2026-05-06 18:57 52.04832 21.07012 2677 ft 188 kts 329°
2026-05-06 18:57 52.05966 21.06017 2460 ft 180 kts 329°
2026-05-06 18:57 52.07040 21.05072 2224 ft 173 kts 329°
2026-05-06 18:58 52.08070 21.04166 1988 ft 164 kts 329°
2026-05-06 18:58 52.09065 21.03291 1772 ft 162 kts 329°
2026-05-06 18:58 52.10038 21.02437 1551 ft 154 kts 329°
2026-05-06 18:58 52.10941 21.01647 1330 ft 141 kts 329°
2026-05-06 18:59 52.11802 21.00891 1169 ft 140 kts 330°
2026-05-06 18:59 52.12665 21.00135 997 ft 140 kts 330°
2026-05-06 18:59 52.13512 20.99393 822 ft 139 kts 330°
2026-05-06 18:59 52.14370 20.98642 639 ft 139 kts 330°
2026-05-06 19:00 52.15217 20.97901 459 ft 138 kts 331°
2026-05-06 19:00 52.16034 20.97186 366 ft 114 kts 330°
2026-05-06 19:00 52.16513 20.96769 365 ft 61 kts 332°
2026-05-06 19:00 52.16839 20.96526 365 ft 44 kts 351°
2026-05-06 19:01 52.17045 20.96524 365 ft 19 kts 17°
2026-05-06 19:01 52.17086 20.96571 365 ft 0 kts 52°
2026-05-06 19:02 52.17087 20.96574 365 ft 1 kts 53°
2026-05-06 19:02 52.17104 20.96614 365 ft 6 kts 59°
2026-05-06 19:02 52.17135 20.96703 365 ft 11 kts 61°
2026-05-06 19:02 52.17153 20.96829 365 ft 12 kts 132°
2026-05-06 19:03 52.17069 20.96918 365 ft 16 kts 151°
2026-05-06 19:03 52.16988 20.96988 365 ft 10 kts 161°
2026-05-06 19:03 52.16938 20.96921 365 ft 0 kts 242°